Theta_e
308 309 310 312 314 316 318 319 319 321 321 321 321 320 319 317 316 316 316 316 316 317 316 317 318 315 315 313 312 317 319 318 317 318 318 317 317 317 318 315 314 315 315 315 331 336 339
307 307 307 308 309 311 313 316 318 319 320 320 321 321 321 320 318 317 316 316 316 317 318 318 319 317 315 314 315 316 316 318 318 317 317 318 318 317 317 316 315 314 314 314 336 340 341
307 306 306 305 306 307 308 311 314 317 319 320 320 320 321 321 319 317 316 316 316 316 318 319 319 317 315 313 316 316 317 318 318 319 317 318 319 318 317 316 314 315 316 314 334 339 343
306 306 306 305 305 305 305 306 308 310 315 318 319 320 320 320 320 318 317 316 316 316 319 321 321 316 314 318 317 320 319 319 318 318 317 317 319 316 317 316 314 317 313 315 317 338 341
305 305 306 305 303 303 303 304 304 306 308 312 316 318 319 320 319 319 317 316 316 317 322 322 318 320 318 319 317 321 320 314 315 315 315 317 317 314 314 314 312 311 315 316 316 335 342
304 305 305 304 303 302 301 302 303 303 305 307 311 315 318 320 319 318 317 316 317 322 320 322 321 317 317 318 321 322 320 320 316 316 316 315 312 315 312 313 311 313 317 317 318 320 338
302 303 303 302 302 302 301 301 304 302 302 302 306 310 316 319 319 318 316 316 316 318 318 317 317 320 320 322 322 323 323 322 316 315 317 315 316 317 316 315 316 318 318 318 316 316 326
301 301 302 302 301 301 300 301 301 300 300 300 302 307 313 319 319 318 317 317 318 318 320 317 316 316 320 321 323 322 322 321 317 316 315 315 316 316 316 315 317 318 318 317 316 322 328
301 301 301 301 301 300 300 300 299 299 299 299 300 303 310 317 318 319 318 319 320 320 318 320 320 321 322 321 323 323 320 319 319 317 315 315 315 316 317 317 318 317 317 316 317 321 333
301 301 301 301 301 300 299 299 299 299 300 299 299 300 307 317 318 318 317 319 320 320 320 320 318 319 320 321 321 321 321 318 317 320 317 316 315 316 316 316 315 317 315 316 316 317 317
300 300 300 301 301 300 300 300 299 300 300 300 299 299 304 315 319 318 319 318 320 316 314 315 319 317 316 317 316 315 318 319 319 317 316 317 316 316 317 316 315 316 316 316 315 315 318
300 300 300 300 301 301 300 299 299 299 300 300 300 299 301 314 316 318 318 317 321 319 322 320 320 317 317 317 317 315 316 317 317 318 317 315 314 314 314 315 314 315 316 315 316 316 319
299 299 299 300 300 300 299 298 299 300 300 301 301 300 300 307 316 316 318 318 324 321 317 319 320 318 317 318 317 316 316 317 316 319 317 316 316 315 314 317 316 316 315 317 318 318 320
299 299 299 299 298 299 299 298 298 299 299 300 301 300 300 300 307 314 319 319 322 318 320 319 319 320 321 319 317 317 315 316 315 316 316 319 320 317 316 317 317 314 314 317 321 319 318
299 300 299 299 299 299 299 299 299 299 299 300 301 301 300 299 300 305 318 323 318 317 320 320 320 321 320 320 319 320 317 315 315 315 319 319 319 316 315 315 316 316 315 315 317 318 324
299 299 299 300 299 299 299 299 299 299 300 301 301 300 300 300 302 311 319 320 318 316 319 320 321 320 322 318 319 320 320 319 318 315 316 318 320 318 317 316 316 316 315 319 317 322 322
298 298 299 298 299 298 299 299 299 299 300 302 301 298 300 301 310 305 317 315 315 313 315 320 322 322 321 322 320 320 320 319 319 319 315 317 319 320 320 319 319 318 317 317 317 319 322
297 298 298 298 298 298 298 299 298 299 301 302 300 298 302 305 306 303 306 311 311 312 315 317 320 319 321 321 321 321 322 320 319 318 318 317 318 320 320 318 317 318 319 319 320 322 321
296 297 298 298 297 297 298 298 298 299 302 301 299 298 304 305 302 302 302 304 305 308 312 315 318 319 319 321 322 321 321 320 320 321 320 317 319 322 322 321 324 324 322 319 319 318 322
295 296 297 297 297 297 298 298 298 299 302 300 297 300 299 303 301 301 301 301 302 303 304 307 310 311 315 320 319 321 321 323 322 322 322 317 320 322 327 323 321 326 326 321 322 321 324
295 294 296 297 297 298 298 298 298 299 301 301 299 299 299 303 302 303 302 303 303 302 302 303 307 308 310 316 317 322 320 319 319 322 322 320 327 324 324 323 321 322 323 326 326 324 323
295 294 296 297 297 298 298 298 298 300 300 301 300 300 301 300 302 302 303 304 304 304 303 304 305 305 304 308 313 316 319 320 320 321 323 322 328 322 322 324 324 326 326 324 326 327 323
294 294 296 297 297 297 297 298 298 300 299 301 301 300 301 302 302 301 301 302 303 303 303 304 305 305 306 305 305 307 310 313 317 321 324 326 327 327 331 326 330 332 329 327 327 326 327
293 294 296 297 297 297 297 298 298 299 299 299 300 301 301 301 301 302 301 302 302 302 303 303 303 306 305 305 305 306 307 306 307 317 319 324 326 324 328 327 332 324 324 325 327 326 325
293 294 296 297 297 296 297 297 298 298 299 299 299 300 301 301 301 301 302 302 302 302 303 303 303 303 304 305 308 308 309 310 309 311 316 319 325 328 329 328 325 325 324 326 327 328 324
294 296 296 297 296 296 296 297 298 298 298 298 299 299 300 300 301 300 301 300 301 301 301 302 301 302 302 304 308 311 311 309 312 319 317 318 320 325 325 329 327 323 322 322 324 330 322
296 296 297 296 296 296 296 296 297 298 298 298 299 299 300 298 299 300 301 302 301 302 302 302 302 305 306 309 311 312 313 312 312 313 317 320 320 322 324 326 324 322 321 322 330 328 322
296 297 296 296 295 295 295 296 296 296 297 298 298 298 299 299 299 299 300 300 300 301 302 301 302 302 303 308 312 313 313 313 315 317 320 318 322 322 322 326 328 318 318 326 324 319 317
296 297 296 295 295 294 293 293 293 293 295 296 297 297 297 299 298 299 299 299 299 299 301 301 303 303 305 306 310 312 313 316 316 319 319 323 322 324 325 324 322 318 320 317 316 317 314
Wind_Speed
6 5 5 6 6 6 7 7 9 9 8 9 11 13 14 16 18 20 22 22 23 23 24 25 27 25 15 6 5 7 6 8 9 11 10 4 6 2 3 3 4 2 3 4 1 5 5
8 7 6 6 7 7 7 7 7 9 10 10 10 12 14 16 17 19 21 22 23 23 23 25 27 20 4 4 5 6 12 11 9 11 6 4 2 1 2 3 2 3 2 4 5 7 4
9 9 8 7 7 7 7 7 8 8 10 11 11 13 14 16 18 20 22 23 23 22 24 24 22 11 2 11 5 16 19 14 13 10 4 2 1 3 2 5 1 3 4 3 4 6 4
9 10 10 9 9 9 8 8 8 8 10 11 13 12 15 16 19 21 23 24 24 24 25 18 11 1 6 13 13 8 13 10 8 8 7 7 1 3 2 2 7 4 4 4 2 6 4
10 10 10 11 10 10 9 9 10 9 10 10 12 13 15 16 18 21 23 26 26 19 11 10 4 2 8 13 3 10 12 6 6 2 3 2 4 4 6 3 5 6 2 1 5 8 6
11 11 10 11 12 11 10 10 10 9 10 10 11 12 14 14 16 20 23 26 10 2 12 3 2 3 4 5 11 20 8 10 3 2 4 6 5 3 3 4 3 2 2 3 4 3 5
11 11 12 12 11 11 11 10 10 11 11 11 10 11 12 12 13 16 23 8 8 5 9 5 10 6 14 16 15 7 6 13 2 5 3 3 3 6 8 5 2 2 2 6 5 6 7
13 12 11 12 12 12 11 10 10 11 11 11 11 11 10 10 10 11 11 6 6 4 9 11 19 13 25 12 7 9 6 2 1 4 3 3 4 10 3 5 4 3 5 9 7 1 4
13 13 13 12 12 12 11 11 11 11 11 11 11 11 8 7 7 5 5 6 6 8 4 7 5 6 5 9 6 5 9 4 4 4 5 7 6 5 4 2 3 4 4 7 7 3 2
15 13 13 13 13 12 11 11 10 10 10 10 11 11 8 4 4 3 1 1 14 2 4 7 4 5 2 5 4 6 13 6 3 9 4 6 5 6 6 6 7 4 7 7 6 1 5
15 14 13 13 13 13 12 11 10 9 9 10 10 10 6 2 2 1 2 10 13 3 5 4 3 3 1 4 5 6 4 4 5 4 5 8 4 3 5 8 6 8 3 4 6 5 1
15 15 14 13 13 13 12 12 11 9 9 9 9 9 6 2 5 5 11 10 1 5 8 6 2 3 2 3 3 2 3 4 3 5 4 6 2 4 7 5 6 3 4 4 2 3 4
17 16 15 14 13 13 13 12 10 9 7 6 7 8 6 4 3 8 7 4 4 5 2 5 3 2 2 2 2 1 4 5 5 2 3 3 5 4 6 5 9 3 4 4 4 1 9
17 17 17 16 14 13 12 11 10 10 8 7 6 7 7 9 7 2 0 3 6 6 8 2 3 4 2 2 4 4 3 2 4 3 2 1 7 6 3 14 10 5 9 5 5 3 4
17 17 17 17 15 13 11 10 9 8 7 6 7 7 8 7 9 7 2 8 9 7 4 3 6 4 3 3 5 1 5 6 9 10 7 4 6 4 5 3 10 4 5 6 5 3 2
18 18 17 17 16 14 12 10 8 6 6 5 3 5 9 5 8 5 3 13 6 4 4 6 8 7 3 5 5 0 2 3 4 11 8 5 8 7 5 4 5 6 5 1 2 4 8
18 19 19 19 18 16 14 11 9 8 8 11 4 1 2 9 10 2 10 8 5 8 7 1 3 3 3 1 5 4 7 5 5 5 10 5 5 6 2 6 8 1 3 3 2 5 5
21 20 21 20 19 18 16 14 10 10 11 13 5 2 2 20 4 3 10 4 7 3 5 6 2 6 10 5 8 9 8 7 5 2 8 8 4 6 16 9 7 8 10 8 5 5 5
24 23 22 21 20 20 18 16 13 13 20 11 3 2 4 12 4 3 4 6 6 5 4 3 5 6 1 3 6 14 22 26 13 8 5 6 4 5 9 4 1 6 5 6 3 2 12
27 25 25 22 20 21 20 18 16 17 22 11 3 3 2 2 1 3 1 4 7 1 8 13 11 13 15 12 14 14 17 7 8 14 7 6 6 9 16 8 4 4 7 8 12 6 11
29 29 26 22 22 22 21 20 19 20 24 14 3 4 3 4 7 10 8 5 7 4 7 2 5 19 18 11 19 23 30 24 21 18 5 8 18 9 16 14 8 14 13 13 16 20 11
31 30 27 23 23 23 22 21 21 22 22 15 4 3 1 2 1 11 13 9 13 14 5 8 12 10 13 19 27 29 18 18 21 9 6 2 15 6 10 8 9 10 16 16 17 8 9
32 32 28 26 25 23 22 23 24 25 25 7 9 2 2 4 6 7 11 11 12 7 11 19 14 13 15 24 18 20 18 21 27 21 18 11 6 5 15 2 1 10 17 10 10 7 9
36 34 30 27 26 25 24 24 25 27 32 15 6 5 4 5 9 12 10 14 18 15 18 18 10 16 23 13 15 19 22 27 26 30 22 18 12 6 17 3 18 18 9 15 21 18 14
39 32 29 28 28 27 26 24 25 28 29 29 17 8 2 5 7 11 15 18 18 19 20 22 23 20 16 13 13 15 18 19 33 32 34 25 17 7 8 12 15 20 3 8 8 23 16
32 30 28 28 27 26 25 23 23 27 28 27 27 23 6 6 14 13 15 18 15 16 16 22 21 23 17 10 12 22 15 19 15 13 30 32 26 14 10 13 22 29 15 8 3 21 14
28 27 27 27 27 26 24 23 23 24 26 28 14 26 10 4 9 11 8 8 8 7 9 9 7 6 11 9 14 16 19 15 19 31 26 22 23 27 20 14 13 6 2 9 10 14 9
23 23 23 24 25 24 23 22 22 23 24 24 19 23 18 3 12 13 13 16 12 10 14 5 8 6 5 8 6 9 10 15 19 26 13 32 19 20 24 24 28 8 6 23 17 5 3
22 26 29 25 22 22 21 20 20 21 22 21 15 19 23 14 11 16 25 34 38 39 12 8 13 14 4 2 4 5 7 6 18 22 18 17 22 18 19 22 4 9 12 11 4 4 5
Wind_Direction
345 351 352 344 332 328 325 332 330 328 321 325 331 335 338 340 342 342 342 342 342 344 344 345 345 346 2 5 263 347 335 350 13 8 35 45 44 42 18 326 341 86 358 360 43 124 109
326 330 336 339 336 343 334 327 327 327 324 316 322 328 333 335 337 337 337 336 336 339 337 335 336 338 27 333 314 318 331 317 345 1 2 41 130 131 88 7 58 304 327 284 151 151 118
330 322 318 324 325 337 337 334 327 328 324 323 321 320 325 329 330 332 332 332 331 335 330 327 328 331 76 245 307 311 312 300 298 312 330 5 31 55 146 332 322 306 336 310 187 175 144
338 332 327 316 321 319 325 334 331 328 325 321 317 325 323 325 326 328 328 328 329 330 325 325 323 332 240 288 311 355 345 308 280 284 257 291 114 99 40 317 8 21 46 15 218 143 186
325 331 328 321 316 316 319 326 324 326 321 321 325 327 322 322 323 326 328 326 325 323 355 341 336 33 270 320 6 352 348 329 308 272 270 149 77 77 21 61 3 6 255 272 325 181 157
315 318 321 321 320 322 321 316 317 324 320 324 327 331 330 323 323 328 332 330 338 353 358 348 29 357 317 311 314 322 344 2 335 66 37 48 53 62 40 74 242 285 334 316 266 203 167
310 311 315 318 314 316 321 322 316 316 323 329 329 332 335 328 328 339 345 358 13 351 28 225 268 239 277 281 296 268 315 337 7 61 174 358 104 214 235 202 183 4 257 263 262 251 188
304 305 303 305 309 311 311 313 313 321 325 331 335 330 330 333 335 343 0 68 99 302 300 250 247 246 260 287 297 274 272 196 143 207 112 30 228 238 164 175 217 260 292 286 291 316 188
298 299 300 300 302 304 307 309 310 317 326 335 334 329 327 328 335 338 38 107 350 334 261 295 242 238 246 167 228 262 161 187 180 200 203 195 223 98 160 188 216 229 209 253 235 339 17
291 295 295 296 299 301 302 301 305 311 319 328 335 334 341 319 292 317 141 323 344 200 354 281 275 274 158 139 262 231 206 148 193 212 187 234 252 220 232 232 167 253 212 240 261 185 248
289 288 288 288 288 293 297 301 303 308 313 325 335 339 330 328 283 6 285 334 338 166 328 249 264 171 95 170 294 2 176 70 201 169 132 240 171 161 215 225 156 235 265 241 248 215 163
284 280 278 278 279 284 290 298 301 304 311 319 330 329 340 286 249 260 315 321 10 51 249 300 243 186 154 202 288 52 78 71 164 180 289 230 267 201 217 232 180 292 324 332 51 139 222
285 282 274 273 273 276 285 291 293 297 297 302 315 316 320 255 240 248 292 340 74 181 297 246 227 118 216 256 289 237 141 170 184 106 262 329 227 245 188 254 287 153 64 317 310 225 257
289 285 276 270 271 267 271 278 283 288 292 297 305 311 297 247 230 255 178 73 196 210 204 4 89 13 48 41 243 230 160 217 224 100 103 192 319 177 192 202 195 171 162 182 255 209 261
293 284 277 268 266 263 259 259 263 269 274 289 301 303 287 256 233 223 161 197 211 179 192 202 20 358 247 276 194 279 219 213 199 170 181 198 258 289 233 167 145 238 171 204 258 249 278
293 287 281 270 266 261 256 250 249 236 228 221 295 318 269 234 191 167 214 220 221 169 74 40 176 192 245 196 236 352 214 213 225 186 176 226 288 215 239 125 259 180 167 235 354 289 262
298 291 284 275 267 259 254 248 239 220 200 179 181 21 262 174 151 55 214 220 241 286 25 335 207 292 225 150 240 224 244 280 208 200 189 159 187 261 68 196 206 289 240 223 181 166 252
296 292 287 277 265 258 250 244 232 210 188 169 170 215 293 157 172 217 228 230 356 315 19 269 295 241 258 291 272 277 258 223 44 164 166 205 174 256 241 237 200 205 218 205 189 249 219
292 290 285 277 262 256 250 237 227 206 183 159 186 235 144 172 200 219 293 307 279 261 62 280 261 211 59 248 270 240 259 266 278 266 231 184 224 296 294 344 115 212 202 204 194 137 239
288 285 284 276 260 251 245 236 224 207 189 183 133 187 299 220 163 140 52 263 261 154 250 241 270 299 287 274 252 271 273 294 262 240 230 168 205 199 253 232 169 220 205 208 211 223 255
282 282 276 270 256 247 240 231 221 209 192 185 171 223 198 189 239 243 233 254 239 249 220 217 256 236 253 278 273 258 260 271 267 290 283 176 245 242 251 253 211 244 243 223 221 242 226
274 281 275 268 252 242 236 229 218 203 194 197 165 165 160 181 106 196 209 224 242 256 253 262 266 286 272 259 250 273 291 272 265 270 211 275 241 209 252 229 210 233 240 232 238 227 245
271 278 268 260 245 237 232 226 217 201 191 198 202 184 85 202 210 214 228 243 256 260 254 250 253 264 257 257 286 295 291 294 277 282 270 244 241 248 263 273 55 256 237 219 233 207 198
267 267 258 248 235 230 227 224 218 208 204 202 176 154 198 229 223 231 248 243 249 252 259 265 261 243 258 283 292 281 274 267 273 269 262 273 256 240 262 229 251 259 189 221 233 234 220
263 249 249 237 228 226 225 223 219 214 210 212 218 193 175 246 230 235 246 249 258 258 257 270 262 260 274 279 280 280 275 267 250 259 246 248 251 247 247 241 271 275 198 200 184 254 223
240 241 237 227 223 222 222 221 218 213 210 216 226 224 219 257 240 247 255 255 257 261 268 262 264 256 259 258 239 246 246 255 248 254 230 239 250 244 243 256 265 262 234 181 144 260 185
234 232 225 220 219 218 218 218 216 214 216 215 228 226 230 243 249 241 231 242 224 223 260 285 300 224 221 240 239 235 244 245 239 253 249 221 227 239 241 251 257 220 230 133 175 253 190
216 208 207 213 218 217 217 217 216 216 217 215 232 228 222 243 259 245 235 239 249 235 250 237 320 239 225 235 251 233 224 230 235 256 278 224 217 225 232 236 246 191 140 202 233 175 200
217 208 212 206 218 218 218 219 219 221 222 220 237 232 236 245 266 272 260 249 241 234 248 236 251 260 294 351 279 252 246 200 232 253 218 232 228 222 202 221 169 180 201 216 195 154 224